Location: Banff
(51.1667°N, 115.5667°W)
Time: 20:07:47
(UTC+00:00)

Vanguard 1 Rocket - Pass Details

Date: 27 November 2020
Orbit: 655 x 4221 km, 34.3° (Epoch: 17 January)

Event Time Altitude Azimuth Distance (km) Brightness Sun altitude
Exits shadow 10:03:36 41° 167° (SSE) 4,521 10.6 -47.8°
Maximum altitude 10:03:55 41° 166° (SSE) 4,500 10.6 -47.7°
Drops below altitude 10° 10:18:47 10° 104° (ESE) 5,158 11.6 -45.7°
Sets 10:22:15 0° 97° (E) 5,755 12.1 -45.2°
